Theta_e
349 350 350 350 348 345 345 343 343 343 344 349 350 350 350 350 349 344 344 351 350 351 350 352 351 347 348 351 350 350 349 349 347 345 346 349 352 350 349 343 346 345 344
351 350 350 349 349 345 344 344 345 344 342 343 343 345 347 350 350 347 349 348 350 350 350 351 351 349 350 347 349 350 350 350 349 348 349 349 349 352 353 349 348 344 344
352 351 350 347 349 349 346 345 345 345 344 344 345 345 345 351 351 349 350 351 350 350 349 350 350 351 352 349 351 350 348 350 350 350 349 349 349 350 350 349 350 349 345
351 351 351 349 346 346 347 343 343 344 345 343 343 343 344 345 347 352 351 350 350 349 349 349 349 351 352 351 351 351 350 350 348 349 348 347 347 348 351 349 347 346 346
344 345 345 342 341 342 344 343 341 343 347 345 341 344 344 345 349 348 350 350 350 349 349 349 349 349 348 345 348 350 349 349 346 344 344 344 346 349 347 347 346 344 344
341 343 343 343 343 343 343 343 341 345 350 349 347 346 349 349 346 343 343 352 352 351 351 351 351 349 345 346 348 348 349 347 351 350 347 346 351 350 346 346 348 347 347
340 340 340 338 337 337 337 339 340 342 343 345 346 342 344 342 342 342 343 344 351 352 352 351 349 346 348 350 350 344 344 347 347 346 348 350 351 352 352 352 352 352 353
336 338 337 335 334 335 337 342 343 344 344 345 345 347 345 344 344 344 343 345 348 347 349 349 349 350 347 342 342 348 351 350 351 351 352 351 351 350 348 347 348 349 354
334 334 335 337 336 337 339 340 341 342 342 343 343 343 343 343 343 343 344 345 347 347 346 345 345 346 345 343 343 346 349 351 351 349 348 346 346 347 348 348 351 351 352
332 334 335 336 336 337 337 337 337 336 336 337 340 340 340 340 340 340 339 341 341 342 341 342 343 345 344 345 345 345 346 346 346 346 346 347 347 348 348 348 348 349 349
331 332 332 331 332 332 331 332 330 332 333 334 335 335 335 334 334 334 335 336 338 339 334 332 334 335 333 333 336 338 339 340 340 340 340 342 343 345 345 345 346 346 347
320 324 325 319 319 319 320 321 323 325 327 328 329 329 330 331 331 330 329 326 326 325 326 327 323 323 323 324 325 325 324 325 332 335 336 337 339 340 340 342 339 339 341
311 312 312 313 313 314 315 316 318 320 324 324 326 325 324 323 325 326 325 325 324 324 322 321 321 320 319 320 321 319 320 330 332 332 333 335 333 333 334 334 337 336 335
307 307 307 308 308 309 310 311 312 313 315 318 319 320 321 319 321 323 322 321 320 320 319 319 318 318 318 319 318 317 320 324 322 324 326 326 327 327 327 327 328 329 330
304 304 305 305 305 305 305 306 307 307 309 310 312 311 314 313 308 308 308 307 307 307 306 313 317 317 318 318 319 321 322 324 327 325 324 324 326 325 326 326 326 326 327
306 307 308 306 306 305 305 305 305 305 305 305 305 305 305 305 304 304 304 304 304 304 305 314 315 317 317 318 318 319 321 321 324 324 322 323 323 323 323 323 322 323 323
309 307 306 307 308 307 308 307 303 302 302 302 302 302 302 302 302 302 303 303 303 303 311 313 314 315 316 317 317 316 314 315 310 318 319 320 321 321 322 321 321 321 321
306 304 307 307 306 306 306 306 306 307 306 303 301 301 301 301 302 302 302 302 306 308 309 310 311 312 313 314 314 314 314 315 315 315 315 317 318 318 317 318 319 319 319
305 306 306 306 305 305 305 305 304 304 305 304 304 302 301 301 301 302 302 302 303 305 305 306 306 307 304 304 308 311 311 312 312 312 313 314 315 315 315 315 315 315 316
307 305 304 304 302 304 304 304 304 304 304 303 303 301 300 302 302 302 301 301 302 302 303 302 303 303 304 304 305 303 304 303 305 307 308 309 309 309 310 311 310 310 310
306 302 302 304 304 304 304 304 304 304 304 303 303 300 300 300 301 301 301 301 300 299 299 299 299 300 301 301 302 302 301 300 302 304 304 304 305 306 305 305 305 305 305
306 305 303 304 304 304 304 304 304 303 303 303 302 301 299 301 301 301 300 300 300 298 298 297 297 297 297 298 297 297 297 298 299 300 300 299 300 299 299 300 301 301 301
307 306 304 304 304 304 303 304 303 303 303 303 302 302 301 301 301 300 299 299 298 297 296 296 296 296 296 296 296 296 295 295 295 296 297 297 298 298 298 297 297 297 297
307 306 305 305 304 304 304 304 304 303 303 303 303 302 302 301 301 300 299 298 297 297 296 295 295 295 294 294 294 294 293 293 294 295 296 296 296 296 296 297 297 298 299
307 307 306 305 305 303 304 304 304 304 304 304 303 303 303 302 302 301 300 299 298 297 296 295 295 294 294 294 294 294 293 293 293 293 294 294 294 295 296 296 297 298 298
310 307 306 305 305 305 305 305 304 304 304 304 304 303 303 303 303 302 301 300 299 297 295 294 295 294 294 293 293 293 293 293 294 294 294 293 294 294 295 295 296 296 297
Wind_Speed
17 15 14 11 11 10 10 11 11 11 13 12 11 10 10 9 9 10 12 11 10 9 10 9 9 11 9 10 10 10 11 12 14 14 13 12 12 12 11 11 10 10 11
16 17 14 13 12 12 11 10 12 14 13 11 12 11 10 10 11 10 9 9 10 10 9 10 10 9 12 12 11 13 11 11 11 12 11 11 12 12 13 13 11 8 6
18 17 15 15 13 12 12 12 8 15 13 13 12 11 10 10 11 12 11 10 9 10 10 11 11 10 10 10 10 10 10 10 11 11 12 12 13 11 14 11 12 11 10
17 18 16 14 16 15 14 14 12 11 12 11 10 10 10 6 8 9 10 11 10 9 9 11 10 11 10 9 8 10 9 11 11 12 13 13 13 13 12 13 14 12 13
21 21 21 20 19 20 17 16 15 14 13 13 13 12 11 10 7 9 10 10 10 8 8 9 9 12 13 12 11 12 12 11 13 14 15 14 13 12 14 15 14 16 15
25 21 21 20 20 19 19 18 18 16 14 13 13 13 12 9 15 12 13 10 12 12 11 11 11 14 14 14 16 16 17 16 14 14 15 16 15 14 16 16 18 17 17
21 22 20 17 14 12 12 15 19 18 18 15 13 15 15 17 17 16 15 13 12 12 12 11 11 11 13 12 15 17 18 18 18 19 20 18 18 16 18 19 18 18 19
12 16 21 19 13 8 7 6 11 16 17 16 15 12 14 18 18 18 17 16 13 13 12 12 12 12 17 18 17 16 16 16 19 18 17 19 20 21 24 24 23 22 19
13 12 10 13 10 9 10 8 8 9 11 11 12 9 14 14 15 15 14 10 11 14 16 18 18 19 21 21 21 19 17 16 18 20 22 22 24 26 25 25 20 20 20
14 12 9 14 14 9 11 12 10 10 10 9 10 9 9 9 8 5 6 4 4 2 9 12 12 13 18 21 19 16 18 16 22 22 24 22 20 20 19 19 19 20 19
15 13 12 12 12 11 8 10 11 11 10 10 10 10 6 7 6 5 5 5 5 5 2 5 7 7 8 8 10 11 13 15 16 17 16 14 14 13 13 15 17 18 18
11 12 11 9 10 12 12 11 10 8 7 8 8 6 8 6 6 5 3 3 4 3 4 6 7 8 9 10 12 12 13 15 12 12 13 12 12 12 12 15 20 18 17
11 11 12 11 10 10 10 9 9 10 8 7 5 4 3 2 4 3 4 4 5 5 8 10 12 12 13 12 13 14 15 10 10 11 12 13 13 14 18 15 15 19 20
10 9 10 10 10 9 8 9 9 7 7 7 5 3 2 1 6 7 7 8 9 10 11 12 14 15 14 15 14 15 14 13 12 12 13 14 14 13 15 15 15 15 17
9 9 8 7 7 7 7 8 7 7 7 7 6 8 6 7 8 9 9 10 12 13 13 9 9 9 10 10 11 10 10 12 12 12 12 14 14 14 15 16 16 17 18
6 6 6 6 6 5 5 5 6 6 5 4 4 4 5 6 7 9 10 11 12 12 9 6 8 8 9 10 10 11 11 10 11 12 12 14 16 16 16 18 18 19 19
7 6 6 7 7 7 7 5 4 3 3 2 1 1 3 5 6 7 9 10 11 10 7 8 7 8 11 12 11 12 15 15 20 15 15 15 16 18 19 19 18 18 21
8 8 6 6 6 7 7 7 6 5 2 2 2 3 5 6 8 9 9 9 7 7 8 9 10 11 11 13 15 15 16 15 16 17 18 17 17 19 20 19 21 21 21
7 7 8 7 7 7 7 6 5 5 4 3 2 6 6 8 8 9 11 10 10 9 9 10 12 13 16 18 15 14 17 15 16 17 16 16 18 17 20 22 23 23 24
9 10 9 7 7 6 6 5 4 3 2 2 1 3 7 7 7 9 11 11 11 11 12 13 13 15 15 16 19 19 21 25 23 21 19 20 20 20 19 21 22 25 26
9 10 11 8 7 7 6 6 5 4 2 1 1 5 8 8 7 9 11 12 13 14 16 18 18 18 17 17 18 19 21 24 24 21 21 21 22 25 27 27 27 29 29
11 10 10 9 9 8 8 7 6 5 4 2 2 9 9 7 7 9 10 11 12 16 18 20 21 20 20 20 20 21 21 20 20 20 23 26 29 32 34 37 39 36 32
14 12 12 11 10 11 11 8 7 6 6 5 4 3 4 5 6 7 8 9 10 13 17 18 21 23 23 23 23 23 24 24 24 25 27 29 29 29 32 37 36 35 34
14 15 14 13 12 11 11 11 10 11 11 8 7 7 6 6 7 9 10 11 12 12 14 21 23 24 24 23 23 23 23 24 27 30 32 34 35 36 37 36 36 38 38
18 18 17 15 14 13 12 12 12 12 11 9 9 9 8 9 9 10 11 11 11 13 17 24 26 25 25 24 23 22 23 25 27 28 28 30 32 32 32 33 33 33 34
26 26 20 17 17 16 14 13 13 12 12 12 11 11 11 12 12 14 14 14 14 16 20 25 27 25 25 24 24 24 23 22 23 23 24 26 27 28 27 28 29 30 31
Wind_Direction
214 210 214 214 217 229 246 224 217 210 207 202 196 202 206 213 218 227 224 229 246 250 246 254 258 259 269 279 289 296 302 305 305 308 317 318 339 335 343 351 348 1 336
207 211 215 216 216 224 217 232 231 208 208 205 201 199 210 216 220 224 227 231 248 254 262 257 261 264 274 278 280 284 288 293 298 308 319 326 325 331 335 347 342 341 354
203 202 210 221 214 221 222 224 228 210 208 211 213 213 223 225 233 236 229 231 238 248 249 258 256 260 263 255 266 267 282 289 292 302 306 315 318 321 323 330 340 335 346
197 196 201 208 221 219 225 225 221 211 211 214 227 218 215 226 223 215 231 229 227 241 245 254 255 258 257 257 267 272 285 283 291 299 302 309 313 313 322 326 324 326 320
199 196 203 219 223 224 229 229 226 223 222 223 226 233 230 230 229 228 224 225 225 232 246 255 265 261 255 262 265 271 264 285 287 289 294 301 307 306 311 312 316 317 321
217 200 202 211 219 225 229 232 228 218 216 219 221 226 226 218 233 234 236 236 240 241 245 250 255 265 265 268 270 272 277 284 282 280 287 292 303 303 306 304 307 311 313
184 184 183 175 176 194 217 229 227 217 215 213 218 229 231 239 243 242 241 239 243 249 249 256 262 273 269 275 278 277 276 277 278 283 283 285 290 296 291 295 297 294 300
205 191 198 201 205 213 229 219 215 216 211 206 209 217 228 239 244 247 244 243 243 241 246 252 258 261 258 264 271 275 276 276 282 286 283 286 285 290 293 296 302 303 304
164 161 176 193 207 225 213 194 183 191 191 193 203 202 228 241 247 253 242 232 234 243 245 253 252 252 260 266 267 272 273 277 277 281 281 284 287 288 291 292 291 286 294
187 198 201 202 203 199 184 180 208 199 190 167 179 199 216 220 227 218 203 159 219 275 276 272 276 273 274 277 273 274 275 278 277 274 282 288 295 298 303 300 300 293 290
154 157 162 153 155 166 176 168 184 179 172 182 184 201 204 208 221 220 215 212 210 223 206 343 297 293 301 304 299 292 289 289 290 295 302 301 295 293 298 301 300 298 294
142 143 139 148 148 147 151 160 159 145 158 167 177 190 217 235 242 244 245 240 236 247 251 275 284 300 301 304 302 302 307 305 316 303 300 301 297 298 295 281 280 291 287
155 156 163 164 169 167 168 167 166 160 139 126 132 147 130 215 240 250 263 273 273 277 283 290 297 301 299 310 305 304 313 317 309 304 300 298 304 301 303 313 304 307 317
174 171 173 170 178 177 180 185 180 176 181 174 164 157 166 253 254 255 269 279 286 288 288 293 294 296 302 304 303 314 308 293 292 303 300 304 309 309 308 308 307 309 304
160 164 164 168 171 177 190 194 200 207 205 199 201 218 195 261 285 282 281 284 289 294 296 304 305 305 307 308 305 300 300 298 302 300 306 303 302 304 303 301 307 307 305
140 140 142 140 144 149 166 171 173 171 178 191 202 246 254 284 313 325 326 322 319 321 331 321 313 310 312 313 314 316 311 302 296 295 309 305 304 304 301 299 307 304 301
155 154 160 144 142 146 154 154 151 130 113 110 103 337 316 324 326 327 325 325 321 328 337 319 317 317 320 316 315 311 303 292 289 296 296 301 302 299 299 301 301 299 301
173 177 151 150 151 153 152 140 139 138 127 25 53 4 350 343 338 334 333 334 350 352 339 329 329 327 318 313 316 311 310 310 311 310 308 303 299 296 297 296 296 297 295
171 168 163 158 156 155 145 141 144 137 131 111 43 358 348 339 331 334 338 347 347 346 337 331 319 313 301 293 287 288 287 301 292 301 299 296 287 289 291 296 293 292 296
187 192 169 166 161 159 160 157 154 142 116 109 66 342 351 10 3 359 352 347 345 339 330 324 320 316 314 314 306 300 294 288 291 289 293 292 291 288 288 289 289 293 291
195 195 184 178 177 181 182 179 180 175 179 196 320 320 344 349 359 353 351 347 342 336 330 325 318 313 313 310 306 306 301 292 285 279 281 287 290 293 291 288 289 289 290
189 197 193 191 194 193 193 197 194 197 207 226 286 305 342 14 346 346 342 342 336 334 332 328 324 318 312 304 301 300 301 296 294 293 291 291 290 290 290 285 282 282 286
190 198 198 199 202 208 210 210 216 216 228 240 256 271 302 305 319 323 322 322 322 326 330 327 324 323 320 315 308 301 297 298 295 288 284 284 286 290 292 295 296 294 292
203 202 206 206 206 215 214 220 225 223 219 241 252 258 268 284 302 307 317 315 320 319 323 328 328 327 323 318 311 306 298 292 286 283 280 281 284 287 290 291 292 295 295
210 215 209 209 218 218 224 229 234 239 244 252 257 263 273 282 295 299 303 305 309 315 322 334 334 329 326 321 318 310 300 292 290 290 289 287 289 291 292 293 293 293 293
240 222 211 214 219 223 224 227 235 241 247 255 262 269 276 284 295 299 301 306 309 313 318 327 332 329 327 325 320 315 312 307 301 298 294 293 295 297 299 300 300 299 298